Piedmont Triad International Airport
KGSO : now visible

Aeroporto :











RITROVATECI SU...

 
LOGIN :

Iscrizione | Disclaimer

   EN    FR    IT 

 









Sommario :    VFR   VFR Marginale   IFR   IFR Intensivo   IFR Molto Intensivo
Visibilità : 
Base nubi : 
>= 8 km
>= 3000ft
5 / 8 km
1000 / 3000 ft
1500m / 5 km
500 / 1000 ft
800 / 1500m
200 / 500 ft
< 800m
< 200 ft
Simboli :   Temporali  Nebbia  Neve Forte  Precipitazioni Forti  Vento > 20 kt







- Altitudine del aeroporto : 925 ft
- Codice IATA : GSO


KGSO - Piedmont Triad International

ULTIMO METAR :
  • 170654Z 22006KT 10SM SCT250 23/20 A2999 RMK AO2 SLP143 T02330200

METARs OBSOLETI :
  • 170554Z 22007KT 10SM SCT250 24/20 A3001 RMK AO2 SLP148 T02390200 10283 20239 58001
  • 170454Z 21007KT 10SM SCT180 BKN250 24/20 A3002 RMK AO2 SLP154 T02440200 403000172

TAF KGSO
Valido dal 17 a 06 ore il 18 a 06 ore UTC


170537Z 1706/1806 21007KT P6SM SCT250
FM171700 21010KT P6SM SCT050 SCT250
PROB30 1720/1724 VRB18G30KT 3SM TSRA SCT025 BKN050CB
FIR KZTL / America del Nord



MetMap, La meteo Aeronautica in un colpo d'occhio ! - Copyright ORBIFLY Dicembre 2007 - Disclaimer

ORBIFLY MET'MAP TEAM :

Programmazione e sviluppo : Alexandra Zaïnal
Concezione e sviluppo : Baudouin d'Aumeries
Co-Programmazione e sviluppo : Marc-Olivier Méhu
Supporto tecnico e logistico : Manuel Goepfert
Aiuto per la traduzione : Arnaldo La Scala

Contatto : metmap@orbifly.com




FONTI E CREDITI :

   NOAA       Earth
Advisory